Wind_Speed
10 10 12 15 18 20 21 21 20 20 20 20 20 19 19 20 19 18 18 18 18 18
10 13 15 17 20 21 22 22 23 23 23 22 21 21 21 21 20 20 20 20 20 20
12 15 17 20 21 22 23 24 24 24 24 24 23 22 22 22 22 22 22 22 22 23
16 19 20 22 22 22 23 23 24 24 23 22 22 22 23 23 23 24 24 24 24 24
19 21 21 20 21 21 22 22 22 22 22 22 21 21 21 23 23 24 24 25 25 26
18 19 19 21 22 22 22 22 21 21 22 21 20 21 21 22 22 23 24 24 24 25
19 20 21 21 22 22 22 22 22 22 22 23 23 22 22 22 22 21 22 22 23 23
21 22 23 23 23 22 22 22 22 22 21 21 22 22 22 21 22 22 22 21 21 22
22 23 23 23 22 22 21 21 20 20 21 20 20 19 21 22 23 23 22 21 19 19
21 21 21 21 21 21 21 22 22 21 20 20 20 19 19 20 21 22 21 20 19 18
20 19 19 20 21 21 22 23 23 22 21 20 20 20 20 20 21 20 20 19 17 17
20 21 20 21 22 22 23 22 22 22 21 21 21 19 21 20 20 20 18 17 18 17
21 21 21 21 22 22 23 23 22 21 19 19 20 20 21 22 21 21 18 16 15 16
22 22 22 23 23 24 23 23 22 20 19 18 17 18 19 19 20 21 21 18 17 16
Wind_Direction
297 305 310 312 314 315 314 313 312 310 308 307 307 306 305 303 302 299 294 291 292 292
304 309 313 314 313 311 310 310 310 308 306 303 300 299 298 297 298 296 294 290 287 287
310 314 314 312 310 308 308 308 307 305 304 303 301 297 294 294 295 292 291 288 283 283
309 309 308 309 309 309 308 308 306 305 304 302 300 298 294 292 292 290 291 288 284 281
305 306 310 313 313 313 313 312 310 308 305 304 302 298 294 293 291 288 287 287 283 280
308 309 315 317 316 316 316 314 313 310 308 306 303 300 298 295 293 290 288 285 282 281
310 313 314 314 314 313 313 313 313 311 309 308 306 302 300 297 294 291 289 287 283 279
312 313 314 314 313 313 313 313 313 313 313 310 306 305 302 299 296 294 291 288 286 284
311 311 310 309 310 311 312 312 313 312 312 312 310 310 306 304 301 300 298 295 290 285
307 308 309 309 311 313 313 313 314 313 312 311 309 309 304 303 302 302 302 300 296 291
306 306 306 307 309 310 311 312 312 312 312 310 311 311 308 306 303 302 303 303 300 296
302 303 304 304 307 309 309 309 310 311 311 311 313 314 309 309 308 305 302 300 298 296
300 303 304 305 305 306 307 309 310 311 312 314 315 312 309 308 304 303 303 301 299 298
302 303 304 304 306 307 306 304 306 307 308 311 312 322 320 310 308 298 298 298 298 299
Height
1522 1522 1521 1519 1518 1516 1514 1511 1509 1507 1505 1504 1502 1500 1498 1497 1496 1494 1491 1490 1489 1488
1520 1519 1517 1516 1514 1512 1510 1507 1505 1503 1501 1499 1497 1495 1493 1491 1490 1490 1488 1487 1485 1484
1518 1516 1514 1512 1510 1507 1505 1502 1499 1497 1495 1494 1492 1490 1487 1486 1485 1483 1483 1482 1481 1480
1515 1513 1510 1507 1505 1503 1500 1497 1495 1493 1490 1487 1486 1485 1484 1481 1479 1478 1477 1475 1475 1474
1510 1508 1505 1502 1500 1498 1495 1493 1490 1487 1484 1482 1480 1478 1476 1476 1475 1472 1470 1470 1469 1467
1505 1504 1500 1498 1496 1493 1491 1489 1486 1484 1481 1478 1475 1473 1471 1469 1467 1466 1465 1464 1462 1461
1502 1499 1496 1494 1491 1488 1486 1483 1481 1478 1476 1474 1472 1469 1466 1463 1461 1458 1457 1457 1456 1455
1497 1495 1492 1489 1486 1483 1481 1478 1476 1472 1470 1468 1467 1464 1462 1460 1457 1453 1451 1449 1449 1449
1493 1490 1488 1485 1482 1480 1477 1474 1471 1468 1465 1461 1461 1458 1457 1455 1452 1450 1447 1443 1441 1441
1487 1485 1483 1481 1479 1475 1473 1469 1466 1464 1461 1458 1457 1454 1451 1449 1447 1444 1441 1439 1436 1435
1481 1479 1478 1476 1473 1470 1468 1465 1462 1459 1456 1453 1452 1450 1447 1445 1442 1440 1438 1436 1433 1430
1478 1475 1473 1471 1469 1466 1462 1459 1457 1455 1452 1449 1447 1445 1443 1440 1438 1435 1433 1430 1431 1427
1472 1470 1469 1466 1463 1460 1457 1455 1453 1450 1448 1446 1443 1441 1437 1435 1433 1431 1427 1427 1425 1425
1468 1465 1462 1459 1458 1455 1452 1449 1448 1444 1445 1442 1439 1437 1432 1429 1426 1427 1423 1421 1420 1420